Wind_Speed
24 23 24 25 25 25 25 24 24 22 20 19 19 18 17 16 16 15 15 15 14 14 14 15 15 16 16 17 17 17 18 18 18 19 19 19 19 19 20 20 21 21 21 22
25 24 24 25 26 25 26 26 25 23 22 21 20 18 18 18 18 18 18 18 17 16 17 17 17 18 18 18 18 18 19 19 21 21 20 20 20 21 21 22 22 22 21 22
26 25 26 26 25 26 26 26 25 24 22 21 20 20 20 20 20 20 19 19 19 19 19 19 20 19 19 19 19 20 21 22 22 22 21 22 22 22 22 22 22 22 23 22
27 27 29 26 25 25 26 26 25 25 24 23 21 21 22 22 22 21 21 21 21 21 21 21 22 22 22 21 21 21 22 23 23 23 23 23 24 23 23 23 23 24 24 24
28 29 28 28 26 25 25 25 25 24 23 23 23 22 22 23 24 24 24 23 23 23 23 23 23 23 23 22 22 22 22 23 24 24 25 25 25 24 24 24 25 25 25 25
29 29 30 28 27 27 26 26 24 23 23 23 23 23 22 23 24 25 24 24 24 23 23 24 24 24 23 23 24 24 24 25 26 26 26 26 26 26 26 26 27 26 26 26
31 31 30 29 28 28 28 26 25 25 25 25 25 24 24 24 25 25 25 25 26 25 25 25 25 26 26 26 26 27 27 28 28 27 27 27 27 27 27 28 28 28 27 27
32 32 31 29 29 29 29 28 27 27 26 26 25 25 25 25 26 26 26 26 26 27 27 26 27 27 28 28 29 29 29 29 29 28 28 28 28 28 28 29 29 29 29 29
32 31 30 29 29 30 29 29 28 28 27 27 27 27 27 26 26 26 26 26 27 27 27 27 27 28 29 30 29 29 29 28 28 29 29 29 28 28 28 29 29 29 29 29
32 31 31 31 31 31 31 30 29 29 29 28 28 28 28 27 26 26 26 26 27 27 28 29 29 29 30 29 29 29 29 28 27 28 28 28 28 28 27 28 29 29 29 29
32 32 32 32 32 32 31 30 29 29 29 29 29 28 28 27 27 27 27 26 26 27 28 29 29 30 29 29 29 29 29 28 28 28 28 28 28 28 28 28 29 29 29 29
31 31 32 31 31 31 31 30 30 30 30 30 30 29 28 27 27 27 27 27 27 28 29 29 29 29 29 29 29 29 29 29 28 28 28 28 28 29 29 29 29 30 30 30
31 31 31 31 31 31 31 31 30 30 30 30 29 29 29 28 28 28 28 28 29 30 30 29 29 29 29 29 30 30 30 30 29 29 29 29 28 29 30 30 31 31 31 31
31 31 31 31 31 30 30 30 29 29 29 29 29 29 29 29 29 29 29 30 30 31 30 30 30 29 29 30 30 31 32 32 31 31 30 30 31 31 31 31 31 32 32 32
29 29 29 29 29 29 29 29 30 29 28 28 28 28 28 29 29 30 31 31 31 31 31 31 31 30 30 31 32 32 32 32 32 32 32 32 32 32 31 31 31 32 32 32
27 27 27 28 28 28 29 29 29 29 29 28 28 27 28 28 29 31 32 32 32 32 32 32 31 31 31 31 32 32 32 32 32 33 32 32 32 32 32 32 32 32 32 32
26 26 26 26 27 28 27 28 29 29 29 28 29 29 29 29 29 30 30 31 31 32 32 32 31 31 30 31 31 32 32 32 32 32 32 32 32 32 32 32 32 32 32 32
26 26 26 27 27 27 28 28 28 28 28 29 29 30 30 29 30 30 29 29 29 29 30 30 30 30 30 30 31 31 31 31 31 32 32 32 31 31 32 32 32 31 30 30
25 26 26 27 28 28 29 29 28 29 28 28 29 30 30 29 29 29 29 28 28 28 28 28 28 28 29 29 30 30 30 30 31 32 32 31 31 31 31 32 31 30 30 29
25 26 26 26 27 27 27 28 27 27 27 27 28 28 29 28 28 28 28 27 27 26 26 26 26 27 28 29 29 30 30 30 30 31 30 30 31 31 30 30 30 30 29 29
24 24 24 24 24 24 24 25 25 25 26 26 26 26 27 27 27 27 26 26 25 25 26 26 26 27 27 28 29 29 29 29 29 29 29 29 30 30 29 29 29 29 29 29
21 22 22 22 22 22 22 23 23 24 24 25 25 26 26 26 26 25 25 25 25 25 25 25 26 27 28 28 29 28 28 28 28 28 28 29 29 29 29 29 29 29 29 28
20 20 20 20 20 20 20 21 21 22 22 23 24 25 25 26 25 24 24 24 25 24 24 25 26 26 27 28 27 27 27 28 28 28 28 29 29 29 29 29 28 28 28 27
19 19 19 19 19 19 19 20 20 21 22 22 23 24 24 24 24 24 25 25 25 24 24 25 25 26 26 25 25 26 27 27 28 28 28 28 29 28 28 27 27 26 26 26
18 19 19 19 19 19 19 19 20 20 21 21 22 22 23 23 23 22 23 23 23 24 24 24 25 25 25 25 26 26 26 26 26 27 27 27 27 27 27 26 26 26 25 25
17 18 19 19 19 19 20 20 20 21 21 21 22 22 22 22 21 21 21 22 22 23 23 23 23 24 24 25 25 26 26 25 25 26 26 26 25 25 25 24 24 24 24 24
17 18 18 19 19 19 20 20 21 21 21 21 22 22 22 22 21 21 21 21 21 22 22 22 22 22 23 23 24 24 25 25 25 25 25 25 24 24 24 24 23 23 23 23
Wind_Direction
246 248 249 251 253 253 254 259 264 266 268 270 274 276 279 282 282 283 286 290 296 299 301 302 303 305 304 297 296 293 294 296 298 299 301 303 306 308 309 309 308 306 305 305
246 246 249 253 252 252 254 258 263 265 267 269 272 274 277 280 280 282 285 288 291 294 296 298 299 300 301 299 298 295 296 297 298 299 300 301 303 305 305 306 308 308 306 305
248 248 251 254 254 254 257 260 262 264 268 272 275 274 277 279 278 282 284 288 292 294 293 295 296 296 297 298 298 297 297 298 299 298 298 299 301 302 303 303 304 305 304 303
249 250 252 255 254 256 259 261 264 266 270 272 272 274 275 276 277 279 283 287 290 293 292 291 292 293 294 295 296 297 298 299 300 298 299 299 300 299 300 302 302 303 303 302
248 250 253 254 255 259 261 263 263 265 270 273 273 275 274 274 276 278 282 285 287 289 289 289 290 290 291 293 294 294 296 297 297 297 299 299 299 299 298 300 301 302 302 303
249 252 254 257 259 260 262 263 266 267 270 273 274 274 274 274 275 277 282 284 284 285 287 286 288 288 288 289 291 294 294 295 296 296 298 297 298 298 298 299 300 302 303 302
249 253 256 258 260 261 262 265 267 269 272 274 275 274 274 274 275 277 281 282 282 281 283 284 284 285 285 288 290 291 291 292 292 294 295 295 296 295 296 297 299 299 300 299
250 254 256 258 259 261 263 265 266 267 270 272 272 273 274 275 275 276 278 280 281 281 281 283 283 283 286 289 292 293 291 292 293 294 295 294 293 293 294 296 297 297 297 297
251 254 256 257 259 261 263 264 265 267 268 269 271 273 275 277 277 275 275 277 279 280 280 282 284 286 286 289 292 295 294 295 296 294 295 296 295 294 294 295 296 297 297 298
252 254 255 256 257 259 261 263 264 265 267 268 271 273 275 276 276 276 277 278 279 279 281 283 284 285 287 290 291 293 296 297 296 295 295 295 295 295 296 296 297 297 297 298
253 253 253 255 256 259 260 262 264 265 267 269 270 272 273 274 275 276 278 280 281 280 283 285 286 287 288 290 293 295 296 296 297 296 297 296 295 296 297 298 299 299 300 300
253 252 254 255 257 258 260 262 265 267 267 269 269 270 272 274 275 275 275 278 280 281 283 285 285 286 288 290 292 294 295 296 296 297 298 297 296 297 297 298 298 299 300 300
254 254 254 255 257 259 260 262 264 265 266 267 267 268 270 272 273 274 275 276 279 280 281 282 283 283 285 286 289 291 293 295 296 297 296 296 296 296 297 297 297 298 299 300
254 255 255 256 258 259 260 262 263 264 265 266 266 267 267 268 270 271 273 274 276 278 279 279 280 282 284 285 287 290 291 293 295 296 295 295 295 295 296 296 297 298 298 299
253 255 256 256 257 257 259 260 261 262 263 264 264 264 265 266 267 269 272 274 276 278 281 281 282 284 285 286 287 290 291 293 294 295 295 294 295 295 295 296 297 298 298 299
252 253 254 256 256 258 260 262 263 263 262 263 265 264 266 268 269 270 272 274 277 278 280 281 282 284 285 286 287 289 291 292 294 295 296 294 295 295 295 297 297 298 298 299
252 254 256 258 260 261 262 264 265 266 265 264 266 266 268 271 273 275 275 276 277 278 279 280 282 283 285 287 288 289 290 292 294 295 296 295 294 294 295 297 297 298 299 300
253 256 259 260 260 261 264 265 267 267 267 266 267 269 271 274 275 276 276 276 278 281 281 282 283 284 285 286 288 288 289 291 292 294 295 295 295 295 296 297 298 298 299 300
255 257 259 259 261 262 264 265 267 268 269 269 269 271 274 275 275 275 277 278 279 281 282 284 284 284 285 286 287 287 289 291 292 294 295 295 296 297 297 297 298 298 299 299
259 261 261 261 263 264 265 267 268 268 269 270 272 275 277 277 276 277 276 275 278 279 281 282 283 284 286 287 289 290 291 292 293 294 294 294 296 297 298 298 298 298 299 299
260 261 263 263 265 265 266 266 266 267 270 273 275 277 276 277 279 280 278 276 277 278 279 281 284 286 287 289 290 291 292 293 294 294 294 295 296 296 297 298 298 298 298 298
261 263 263 263 265 266 266 266 266 267 269 271 274 275 276 280 281 279 278 277 278 280 281 283 284 286 288 289 290 290 290 293 294 294 294 295 296 296 296 297 298 298 298 298
259 260 261 263 266 267 265 265 267 268 271 274 275 276 278 280 280 279 278 279 281 282 285 286 286 286 288 289 289 290 292 293 294 294 294 295 296 297 298 298 298 298 298 298
258 257 260 263 266 267 267 267 269 271 274 277 278 279 280 282 282 281 280 281 283 285 287 287 286 287 289 290 292 294 295 296 295 294 294 295 296 297 298 298 298 298 296 297
255 257 259 261 263 266 269 271 273 274 277 279 280 281 282 283 284 284 282 282 283 285 287 287 288 290 290 292 294 295 297 298 297 297 297 297 297 297 297 298 298 297 296 297
255 257 260 262 264 266 268 271 274 276 277 279 281 282 284 283 283 282 282 283 284 286 288 290 292 294 295 296 296 297 297 296 298 298 298 297 298 297 297 297 298 299 300 300
256 258 261 263 266 268 270 271 273 276 278 280 282 283 282 281 281 281 282 285 286 288 290 292 293 295 297 298 299 299 299 299 300 300 300 299 299 298 297 297 297 299 300 301
Height
5852 5854 5856 5857 5859 5860 5862 5863 5865 5866 5866 5868 5868 5868 5868 5867 5867 5866 5866 5865 5864 5863 5862 5861 5859 5857 5856 5854 5853 5851 5849 5847 5846 5844 5842 5840 5838 5836 5834 5831 5829 5826 5824 5822
5846 5848 5850 5851 5853 5855 5856 5858 5859 5860 5861 5863 5863 5863 5863 5863 5863 5863 5862 5861 5860 5859 5858 5856 5855 5854 5852 5850 5849 5847 5845 5842 5841 5839 5837 5835 5833 5831 5828 5826 5824 5821 5819 5816
5839 5842 5843 5845 5848 5850 5851 5852 5854 5855 5857 5857 5858 5859 5859 5859 5858 5858 5857 5856 5855 5853 5852 5851 5850 5849 5848 5846 5844 5842 5840 5838 5835 5833 5831 5829 5827 5825 5823 5821 5818 5816 5813 5811
5833 5836 5837 5842 5843 5844 5845 5846 5848 5850 5851 5852 5853 5853 5853 5853 5853 5852 5852 5850 5849 5848 5847 5846 5845 5843 5842 5840 5839 5836 5834 5832 5830 5828 5826 5824 5822 5820 5818 5815 5813 5810 5808 5805
5827 5828 5831 5834 5836 5837 5839 5840 5842 5844 5845 5846 5847 5847 5847 5847 5847 5846 5846 5845 5844 5842 5841 5840 5839 5837 5836 5834 5832 5829 5828 5826 5824 5822 5820 5818 5816 5814 5812 5809 5807 5804 5802 5799
5821 5822 5824 5829 5830 5831 5834 5834 5837 5838 5839 5840 5840 5841 5842 5841 5840 5840 5839 5838 5838 5837 5835 5834 5833 5831 5829 5827 5825 5823 5821 5819 5817 5815 5813 5811 5809 5807 5805 5802 5800 5797 5795 5793
5814 5816 5818 5821 5823 5825 5828 5830 5831 5831 5832 5833 5833 5834 5835 5834 5833 5833 5832 5832 5831 5830 5829 5827 5826 5824 5822 5820 5818 5816 5814 5812 5810 5808 5806 5803 5801 5799 5797 5795 5793 5790 5788 5785
5808 5810 5814 5815 5816 5818 5820 5822 5823 5824 5825 5826 5826 5826 5826 5826 5826 5825 5825 5824 5823 5822 5821 5819 5818 5817 5815 5813 5811 5809 5806 5804 5802 5800 5798 5795 5793 5791 5789 5787 5785 5782 5780 5777
5802 5805 5806 5808 5810 5811 5813 5814 5815 5816 5818 5818 5819 5819 5819 5819 5818 5818 5817 5817 5816 5815 5813 5812 5811 5809 5807 5805 5803 5801 5799 5796 5794 5792 5790 5787 5785 5784 5782 5779 5777 5774 5772 5769
5794 5797 5798 5800 5802 5804 5805 5807 5808 5809 5810 5810 5811 5811 5811 5811 5810 5810 5809 5809 5808 5807 5805 5804 5803 5801 5799 5798 5796 5794 5791 5789 5786 5784 5782 5780 5778 5776 5774 5771 5769 5766 5763 5761
5786 5789 5791 5793 5794 5796 5798 5799 5800 5801 5801 5802 5802 5803 5803 5803 5802 5802 5801 5801 5800 5799 5798 5796 5795 5793 5791 5790 5788 5786 5783 5781 5779 5777 5774 5772 5770 5768 5766 5763 5761 5758 5755 5752
5779 5781 5783 5785 5787 5788 5790 5791 5792 5793 5793 5793 5794 5794 5794 5794 5794 5793 5793 5792 5791 5790 5789 5788 5787 5785 5783 5782 5780 5778 5776 5773 5770 5769 5767 5765 5763 5760 5758 5755 5753 5750 5747 5744
5771 5772 5775 5777 5778 5780 5781 5783 5784 5784 5785 5785 5785 5785 5786 5786 5785 5785 5784 5784 5783 5782 5781 5779 5778 5777 5775 5774 5772 5770 5768 5765 5763 5761 5759 5757 5755 5752 5750 5747 5744 5741 5738 5735
5762 5764 5766 5768 5770 5772 5773 5774 5775 5776 5776 5776 5776 5777 5777 5777 5777 5776 5776 5775 5774 5773 5772 5770 5769 5768 5767 5765 5763 5762 5760 5758 5755 5753 5750 5748 5746 5743 5741 5738 5735 5732 5729 5726
5755 5757 5759 5760 5762 5763 5764 5765 5766 5767 5768 5768 5768 5768 5768 5768 5767 5767 5766 5765 5765 5764 5763 5761 5760 5759 5758 5757 5755 5753 5751 5749 5747 5744 5742 5739 5737 5734 5731 5729 5726 5722 5719 5716
5748 5749 5751 5752 5754 5755 5756 5757 5758 5758 5759 5759 5759 5759 5759 5758 5758 5758 5757 5757 5756 5755 5754 5753 5752 5751 5749 5748 5746 5745 5743 5741 5738 5735 5732 5730 5727 5725 5722 5719 5716 5713 5710 5707
5741 5743 5744 5745 5746 5747 5748 5749 5749 5750 5750 5750 5750 5750 5750 5750 5749 5748 5748 5748 5747 5746 5745 5744 5743 5742 5741 5739 5737 5736 5734 5731 5729 5726 5723 5721 5718 5715 5713 5710 5707 5704 5701 5698
5734 5736 5736 5737 5738 5739 5740 5741 5741 5741 5741 5742 5741 5741 5741 5741 5740 5740 5739 5739 5738 5737 5736 5735 5734 5733 5731 5730 5728 5726 5724 5722 5720 5717 5714 5712 5709 5706 5704 5701 5697 5695 5692 5689
5727 5728 5729 5730 5730 5731 5732 5732 5733 5733 5733 5733 5733 5733 5732 5732 5731 5731 5730 5730 5729 5728 5727 5726 5725 5724 5722 5721 5719 5717 5715 5713 5710 5708 5705 5703 5700 5698 5695 5692 5688 5685 5683 5680
5720 5721 5721 5722 5722 5723 5723 5724 5724 5724 5724 5724 5724 5724 5724 5723 5723 5722 5721 5721 5720 5720 5719 5717 5716 5715 5714 5712 5710 5709 5706 5704 5702 5699 5697 5694 5691 5689 5686 5683 5680 5677 5674 5671
5713 5714 5714 5714 5714 5715 5715 5715 5716 5716 5716 5716 5716 5716 5716 5715 5715 5714 5713 5713 5712 5711 5710 5709 5708 5707 5705 5704 5702 5700 5698 5695 5693 5690 5688 5686 5683 5680 5677 5674 5671 5669 5666 5663
5707 5707 5707 5707 5708 5708 5708 5708 5708 5709 5709 5709 5709 5709 5708 5708 5707 5706 5705 5705 5704 5703 5702 5702 5700 5699 5697 5695 5693 5691 5689 5687 5684 5682 5680 5677 5674 5672 5669 5666 5663 5660 5657 5654
5700 5701 5701 5701 5702 5702 5702 5702 5702 5702 5702 5702 5702 5701 5701 5701 5700 5699 5699 5698 5697 5696 5695 5693 5692 5690 5688 5686 5684 5682 5680 5678 5676 5673 5671 5668 5666 5663 5660 5657 5654 5652 5649 5646
5694 5695 5695 5696 5696 5696 5696 5696 5696 5696 5695 5695 5695 5694 5694 5693 5693 5692 5691 5690 5689 5688 5687 5686 5684 5682 5680 5678 5676 5674 5672 5669 5667 5664 5662 5659 5657 5654 5651 5649 5646 5643 5641 5638
5689 5689 5690 5690 5690 5690 5690 5690 5690 5689 5689 5689 5688 5688 5687 5686 5685 5684 5683 5683 5682 5681 5679 5678 5676 5675 5673 5671 5669 5666 5664 5661 5659 5656 5653 5651 5648 5646 5643 5641 5638 5636 5633 5631
5683 5683 5684 5684 5684 5684 5684 5684 5683 5683 5683 5682 5682 5681 5680 5679 5678 5677 5676 5675 5675 5674 5672 5670 5669 5667 5665 5663 5661 5659 5656 5654 5651 5648 5646 5643 5640 5638 5635 5633 5631 5628 5626 5624
5677 5678 5678 5678 5678 5678 5678 5677 5677 5677 5676 5676 5675 5674 5673 5673 5672 5670 5670 5669 5668 5666 5665 5664 5662 5660 5658 5656 5654 5651 5649 5646 5644 5641 5638 5636 5633 5630 5628 5626 5623 5621 5619 5617